Year,Month,Day,Hour,Minute,Value (Times are PST for barometer in hPa)
2012,09,26,00,00,997.94
2012,09,26,00,01,997.94
2012,09,26,00,02,997.94
2012,09,26,00,03,997.87
2012,09,26,00,04,997.87
2012,09,26,00,05,997.90
2012,09,26,00,06,997.90
2012,09,26,00,07,997.94
2012,09,26,00,08,997.90
2012,09,26,00,09,997.90
2012,09,26,00,10,997.87
2012,09,26,00,11,997.87
2012,09,26,00,12,997.87
2012,09,26,00,13,997.80
2012,09,26,00,14,997.83
2012,09,26,00,15,997.90
2012,09,26,00,16,997.83
2012,09,26,00,17,997.83
2012,09,26,00,18,997.87
2012,09,26,00,19,997.87
2012,09,26,00,20,997.87
2012,09,26,00,21,997.80
2012,09,26,00,22,997.77
2012,09,26,00,23,997.83
2012,09,26,00,24,997.83
2012,09,26,00,25,997.77
2012,09,26,00,26,997.83
2012,09,26,00,27,997.83
2012,09,26,00,28,997.83
2012,09,26,00,29,997.90
2012,09,26,00,30,997.83
2012,09,26,00,31,997.80
2012,09,26,00,32,997.83
2012,09,26,00,33,997.80
2012,09,26,00,34,997.80
2012,09,26,00,35,997.90
2012,09,26,00,36,997.77
2012,09,26,00,37,997.77
2012,09,26,00,38,997.83
2012,09,26,00,39,997.83
2012,09,26,00,40,997.83
2012,09,26,00,41,997.83
2012,09,26,00,42,997.80
2012,09,26,00,43,997.73
2012,09,26,00,44,997.80
2012,09,26,00,45,997.80
2012,09,26,00,46,997.77
2012,09,26,00,47,997.73
2012,09,26,00,48,997.80
2012,09,26,00,49,997.73
2012,09,26,00,50,997.80
2012,09,26,00,51,997.77
2012,09,26,00,52,997.77
2012,09,26,00,53,997.77
2012,09,26,00,54,997.80
2012,09,26,00,55,997.80
2012,09,26,00,56,997.80
2012,09,26,00,57,997.70
2012,09,26,00,58,997.70
2012,09,26,00,59,997.70
2012,09,26,01,00,997.66
2012,09,26,01,01,997.63
2012,09,26,01,02,997.60
2012,09,26,01,03,997.60
2012,09,26,01,04,997.53
2012,09,26,01,05,997.56
2012,09,26,01,06,997.56
2012,09,26,01,07,997.56
2012,09,26,01,08,997.60
2012,09,26,01,09,997.60
2012,09,26,01,10,997.60
2012,09,26,01,11,997.60
2012,09,26,01,12,997.56
2012,09,26,01,13,997.60
2012,09,26,01,14,997.60
2012,09,26,01,15,997.60
2012,09,26,01,16,997.70
2012,09,26,01,17,997.63
2012,09,26,01,18,997.66
2012,09,26,01,19,997.70
2012,09,26,01,20,997.70
2012,09,26,01,21,997.70
2012,09,26,01,22,997.60
2012,09,26,01,23,997.56
2012,09,26,01,24,997.56
2012,09,26,01,25,997.56
2012,09,26,01,26,997.53
2012,09,26,01,27,997.53
2012,09,26,01,28,997.50
2012,09,26,01,29,997.43
2012,09,26,01,30,997.46
2012,09,26,01,31,997.39
2012,09,26,01,32,997.39
2012,09,26,01,33,997.39
2012,09,26,01,34,997.39
2012,09,26,01,35,997.39
2012,09,26,01,36,997.36
2012,09,26,01,37,997.39
2012,09,26,01,38,997.36
2012,09,26,01,39,997.29
2012,09,26,01,40,997.29
2012,09,26,01,41,997.26
2012,09,26,01,42,997.26
2012,09,26,01,43,997.29
2012,09,26,01,44,997.29
2012,09,26,01,45,997.26
2012,09,26,01,46,997.29
2012,09,26,01,47,997.29
2012,09,26,01,48,997.26
2012,09,26,01,49,997.26
2012,09,26,01,50,997.22
2012,09,26,01,51,997.19
2012,09,26,01,52,997.16
2012,09,26,01,53,997.19
2012,09,26,01,54,997.26
2012,09,26,01,55,997.19
2012,09,26,01,56,997.16
2012,09,26,01,57,997.16
2012,09,26,01,58,997.12
2012,09,26,01,59,997.12
2012,09,26,02,00,997.09
2012,09,26,02,01,997.09
2012,09,26,02,02,997.05
2012,09,26,02,03,997.02
2012,09,26,02,04,997.05
2012,09,26,02,05,997.05
2012,09,26,02,06,997.02
2012,09,26,02,07,997.02
2012,09,26,02,08,996.95
2012,09,26,02,09,996.92
2012,09,26,02,10,996.92
2012,09,26,02,11,996.89
2012,09,26,02,12,996.89
2012,09,26,02,13,996.85
2012,09,26,02,14,996.78
2012,09,26,02,15,996.82
2012,09,26,02,16,996.78
2012,09,26,02,17,996.82
2012,09,26,02,18,996.75
2012,09,26,02,19,996.78
2012,09,26,02,20,996.78
2012,09,26,02,21,996.75
2012,09,26,02,22,996.78
2012,09,26,02,23,996.75
2012,09,26,02,24,996.75
2012,09,26,02,25,996.78
2012,09,26,02,26,996.75
2012,09,26,02,27,996.78
2012,09,26,02,28,996.75
2012,09,26,02,29,996.72
2012,09,26,02,30,996.75
2012,09,26,02,31,996.75
2012,09,26,02,32,996.72
2012,09,26,02,33,996.68
2012,09,26,02,34,996.72
2012,09,26,02,35,996.65
2012,09,26,02,36,996.65
2012,09,26,02,37,996.68
2012,09,26,02,38,996.61
2012,09,26,02,39,996.65
2012,09,26,02,40,996.65
2012,09,26,02,41,996.58
2012,09,26,02,42,996.58
2012,09,26,02,43,996.58
2012,09,26,02,44,996.58
2012,09,26,02,45,996.55
2012,09,26,02,46,996.55
2012,09,26,02,47,996.51
2012,09,26,02,48,996.51
2012,09,26,02,49,996.55
2012,09,26,02,50,996.51
2012,09,26,02,51,996.48
2012,09,26,02,52,996.51
2012,09,26,02,53,996.51
2012,09,26,02,54,996.55
2012,09,26,02,55,996.48
2012,09,26,02,56,996.55
2012,09,26,02,57,996.51
2012,09,26,02,58,996.55
2012,09,26,02,59,996.48
2012,09,26,03,00,996.45
2012,09,26,03,01,996.48
2012,09,26,03,02,996.48
2012,09,26,03,03,996.45
2012,09,26,03,04,996.45
2012,09,26,03,05,996.45
2012,09,26,03,06,996.41
2012,09,26,03,07,996.48
2012,09,26,03,08,996.41
2012,09,26,03,09,996.38
2012,09,26,03,10,996.38
2012,09,26,03,11,996.41
2012,09,26,03,12,996.41
2012,09,26,03,13,996.45
2012,09,26,03,14,996.38
2012,09,26,03,15,996.41
2012,09,26,03,16,996.34
2012,09,26,03,17,996.34
2012,09,26,03,18,996.38
2012,09,26,03,19,996.41
2012,09,26,03,20,996.34
2012,09,26,03,21,996.34
2012,09,26,03,22,996.38
2012,09,26,03,23,996.38
2012,09,26,03,24,996.34
2012,09,26,03,25,996.38
2012,09,26,03,26,996.31
2012,09,26,03,27,996.28
2012,09,26,03,28,996.31
2012,09,26,03,29,996.31
2012,09,26,03,30,996.28
2012,09,26,03,31,996.31
2012,09,26,03,32,996.28
2012,09,26,03,33,996.28
2012,09,26,03,34,996.28
2012,09,26,03,35,996.28
2012,09,26,03,36,996.28
2012,09,26,03,37,996.31
2012,09,26,03,38,996.24
2012,09,26,03,39,996.28
2012,09,26,03,40,996.24
2012,09,26,03,41,996.28
2012,09,26,03,42,996.28
2012,09,26,03,43,996.24
2012,09,26,03,44,996.17
2012,09,26,03,45,996.21
2012,09,26,03,46,996.17
2012,09,26,03,47,996.17
2012,09,26,03,48,996.21
2012,09,26,03,49,996.21
2012,09,26,03,50,996.17
2012,09,26,03,51,996.11
2012,09,26,03,52,996.17
2012,09,26,03,53,996.11
2012,09,26,03,54,996.11
2012,09,26,03,55,996.07
2012,09,26,03,56,996.04
2012,09,26,03,57,996.07
2012,09,26,03,58,996.07
2012,09,26,03,59,996.07
2012,09,26,04,00,996.11
2012,09,26,04,01,996.07
2012,09,26,04,02,996.11
2012,09,26,04,03,996.14
2012,09,26,04,04,996.11
2012,09,26,04,05,996.14
2012,09,26,04,06,996.11
2012,09,26,04,07,996.17
2012,09,26,04,08,996.17
2012,09,26,04,09,996.21
2012,09,26,04,10,996.14
2012,09,26,04,11,996.14
2012,09,26,04,12,996.11
2012,09,26,04,13,996.17
2012,09,26,04,14,996.17
2012,09,26,04,15,996.21
2012,09,26,04,16,996.14
2012,09,26,04,17,996.11
2012,09,26,04,18,996.14
2012,09,26,04,19,996.17
2012,09,26,04,20,996.14
2012,09,26,04,21,996.14
2012,09,26,04,22,996.14
2012,09,26,04,23,996.14
2012,09,26,04,24,996.17
2012,09,26,04,25,996.14
2012,09,26,04,26,996.17
2012,09,26,04,27,996.14
2012,09,26,04,28,996.21
2012,09,26,04,29,996.17
2012,09,26,04,30,996.14
2012,09,26,04,31,996.21
2012,09,26,04,32,996.14
2012,09,26,04,33,996.11
2012,09,26,04,34,996.11
2012,09,26,04,35,996.04
2012,09,26,04,36,996.11
2012,09,26,04,37,996.11
2012,09,26,04,38,996.01
2012,09,26,04,39,995.97
2012,09,26,04,40,995.94
2012,09,26,04,41,995.97
2012,09,26,04,42,995.97
2012,09,26,04,43,996.01
2012,09,26,04,44,995.90
2012,09,26,04,45,995.94
2012,09,26,04,46,995.94
2012,09,26,04,47,995.90
2012,09,26,04,48,995.94
2012,09,26,04,49,995.94
2012,09,26,04,50,995.94
2012,09,26,04,51,996.10
2012,09,26,04,52,996.01
2012,09,26,04,53,995.94
2012,09,26,04,54,995.94
2012,09,26,04,55,995.94
2012,09,26,04,56,995.90
2012,09,26,04,57,995.90
2012,09,26,04,58,995.90
2012,09,26,04,59,995.94
2012,09,26,05,00,995.94
2012,09,26,05,01,995.97
2012,09,26,05,02,995.94
2012,09,26,05,03,995.94
2012,09,26,05,04,995.94
2012,09,26,05,05,995.97
2012,09,26,05,06,996.01
2012,09,26,05,07,995.97
2012,09,26,05,08,996.01
2012,09,26,05,09,996.01
2012,09,26,05,10,995.97
2012,09,26,05,11,996.01
2012,09,26,05,12,995.94
2012,09,26,05,13,995.97
2012,09,26,05,14,995.94
2012,09,26,05,15,995.97
2012,09,26,05,16,996.01
2012,09,26,05,17,996.01
2012,09,26,05,18,995.90
2012,09,26,05,19,995.90
2012,09,26,05,20,995.90
2012,09,26,05,21,995.94
2012,09,26,05,22,995.97
2012,09,26,05,23,995.94
2012,09,26,05,24,995.97
2012,09,26,05,25,995.97
2012,09,26,05,26,995.97
2012,09,26,05,27,996.01
2012,09,26,05,28,996.01
2012,09,26,05,29,996.01
2012,09,26,05,30,995.97
2012,09,26,05,31,996.07
2012,09,26,05,32,996.01
2012,09,26,05,33,996.01
2012,09,26,05,34,996.01
2012,09,26,05,35,996.04
2012,09,26,05,36,996.04
2012,09,26,05,37,996.07
2012,09,26,05,38,996.04
2012,09,26,05,39,996.07
2012,09,26,05,40,996.11
2012,09,26,05,41,996.07
2012,09,26,05,42,996.07
2012,09,26,05,43,996.07
2012,09,26,05,44,996.11
2012,09,26,05,45,996.07
2012,09,26,05,46,996.11
2012,09,26,05,47,996.07
2012,09,26,05,48,996.07
2012,09,26,05,49,996.04
2012,09,26,05,50,996.01
2012,09,26,05,51,995.94
2012,09,26,05,52,995.90
2012,09,26,05,53,995.94
2012,09,26,05,54,995.94
2012,09,26,05,55,995.87
2012,09,26,05,56,995.84
2012,09,26,05,57,995.84
2012,09,26,05,58,995.90
2012,09,26,05,59,995.94
2012,09,26,06,00,995.90
2012,09,26,06,01,995.87
2012,09,26,06,02,995.84
2012,09,26,06,03,995.77
2012,09,26,06,04,995.70
2012,09,26,06,05,995.73
2012,09,26,06,06,995.73
2012,09,26,06,07,995.80
2012,09,26,06,08,995.87
2012,09,26,06,09,995.87
2012,09,26,06,10,995.94
2012,09,26,06,11,995.97
2012,09,26,06,12,995.94
2012,09,26,06,13,996.07
2012,09,26,06,14,996.07
2012,09,26,06,15,996.11
2012,09,26,06,16,996.07
2012,09,26,06,17,996.14
2012,09,26,06,18,996.14
2012,09,26,06,19,996.17
2012,09,26,06,20,996.14
2012,09,26,06,21,996.11
2012,09,26,06,22,996.14
2012,09,26,06,23,996.14
2012,09,26,06,24,996.17
2012,09,26,06,25,996.14
2012,09,26,06,26,996.17
2012,09,26,06,27,996.17
2012,09,26,06,28,996.21
2012,09,26,06,29,996.21
2012,09,26,06,30,996.24
2012,09,26,06,31,996.21
2012,09,26,06,32,996.24
2012,09,26,06,33,996.24
2012,09,26,06,34,996.28
2012,09,26,06,35,996.28
2012,09,26,06,36,996.28
2012,09,26,06,37,996.31
2012,09,26,06,38,996.28
2012,09,26,06,39,996.34
2012,09,26,06,40,996.31
2012,09,26,06,41,996.34
2012,09,26,06,42,996.38
2012,09,26,06,43,996.41
2012,09,26,06,44,996.45
2012,09,26,06,45,996.41
2012,09,26,06,46,996.45
2012,09,26,06,47,996.48
2012,09,26,06,48,996.48
2012,09,26,06,49,996.51
2012,09,26,06,50,996.51
2012,09,26,06,51,996.51
2012,09,26,06,52,996.51
2012,09,26,06,53,996.51
2012,09,26,06,54,996.51
2012,09,26,06,55,996.51
2012,09,26,06,56,996.51
2012,09,26,06,57,996.51
2012,09,26,06,58,996.51
2012,09,26,06,59,996.55
2012,09,26,07,00,996.51
2012,09,26,07,01,996.58
2012,09,26,07,02,996.58
2012,09,26,07,03,996.55
2012,09,26,07,04,996.58
2012,09,26,07,05,996.58
2012,09,26,07,06,996.58
2012,09,26,07,07,996.58
2012,09,26,07,08,996.51
2012,09,26,07,09,996.55
2012,09,26,07,10,996.55
2012,09,26,07,11,996.51
2012,09,26,07,12,996.55
2012,09,26,07,13,996.51
2012,09,26,07,14,996.51
2012,09,26,07,15,996.51
2012,09,26,07,16,996.41
2012,09,26,07,17,996.48
2012,09,26,07,18,996.45
2012,09,26,07,19,996.41
2012,09,26,07,20,996.38
2012,09,26,07,21,996.38
2012,09,26,07,22,996.38
2012,09,26,07,23,996.41
2012,09,26,07,24,996.45
2012,09,26,07,25,996.45
2012,09,26,07,26,996.45
2012,09,26,07,27,996.45
2012,09,26,07,28,996.48
2012,09,26,07,29,996.51
2012,09,26,07,30,996.48
2012,09,26,07,31,996.48
2012,09,26,07,32,996.51
2012,09,26,07,33,996.51
2012,09,26,07,34,996.51
2012,09,26,07,35,996.48
2012,09,26,07,36,996.51
2012,09,26,07,37,996.48
2012,09,26,07,38,996.45
2012,09,26,07,39,996.45
2012,09,26,07,40,996.48
2012,09,26,07,41,996.48
2012,09,26,07,42,996.48
2012,09,26,07,43,996.51
2012,09,26,07,44,996.51
2012,09,26,07,45,996.51
2012,09,26,07,46,996.48
2012,09,26,07,47,996.51
2012,09,26,07,48,996.48
2012,09,26,07,49,996.45
2012,09,26,07,50,996.45
2012,09,26,07,51,996.41
2012,09,26,07,52,996.41
2012,09,26,07,53,996.45
2012,09,26,07,54,996.41
2012,09,26,07,55,996.41
2012,09,26,07,56,996.48
2012,09,26,07,57,996.45
2012,09,26,07,58,996.41
2012,09,26,07,59,996.45
2012,09,26,08,00,996.45
2012,09,26,08,01,996.38
2012,09,26,08,02,996.32
2012,09,26,08,03,996.41
2012,09,26,08,04,996.38
2012,09,26,08,05,996.45
2012,09,26,08,06,996.45
2012,09,26,08,07,996.55
2012,09,26,08,08,996.48
2012,09,26,08,09,996.48
2012,09,26,08,10,996.55
2012,09,26,08,11,996.48
2012,09,26,08,12,996.58
2012,09,26,08,13,996.58
2012,09,26,08,14,996.51
2012,09,26,08,15,996.51
2012,09,26,08,16,996.55
2012,09,26,08,17,996.55
2012,09,26,08,18,996.65
2012,09,26,08,19,996.58
2012,09,26,08,20,996.58
2012,09,26,08,21,996.68
2012,09,26,08,22,996.68
2012,09,26,08,23,996.68
2012,09,26,08,24,996.68
2012,09,26,08,25,996.68
2012,09,26,08,26,996.65
2012,09,26,08,27,996.72
2012,09,26,08,28,996.65
2012,09,26,08,29,996.61
2012,09,26,08,30,996.65
2012,09,26,08,31,996.65
2012,09,26,08,32,996.65
2012,09,26,08,33,996.65
2012,09,26,08,34,996.75
2012,09,26,08,35,996.68
2012,09,26,08,36,996.78
2012,09,26,08,37,996.78
2012,09,26,08,38,996.78
2012,09,26,08,39,996.85
2012,09,26,08,40,996.89
2012,09,26,08,41,996.85
2012,09,26,08,42,996.89
2012,09,26,08,43,996.89
2012,09,26,08,44,996.89
2012,09,26,08,45,996.95
2012,09,26,08,46,996.92
2012,09,26,08,47,996.95
2012,09,26,08,48,996.95
2012,09,26,08,49,996.95
2012,09,26,08,50,997.02
2012,09,26,08,51,996.99
2012,09,26,08,52,997.02
2012,09,26,08,53,997.02
2012,09,26,08,54,997.05
2012,09,26,08,55,997.09
2012,09,26,08,56,997.09
2012,09,26,08,57,997.16
2012,09,26,08,58,997.16
2012,09,26,08,59,997.22
2012,09,26,09,00,997.26
2012,09,26,09,01,997.26
2012,09,26,09,02,997.29
2012,09,26,09,03,997.33
2012,09,26,09,04,997.39
2012,09,26,09,05,997.39
2012,09,26,09,06,997.46
2012,09,26,09,07,997.50
2012,09,26,09,08,997.53
2012,09,26,09,09,997.56
2012,09,26,09,10,997.63
2012,09,26,09,11,997.66
2012,09,26,09,12,997.66
2012,09,26,09,13,997.70
2012,09,26,09,14,997.73
2012,09,26,09,15,997.80
2012,09,26,09,16,997.80
2012,09,26,09,17,997.80
2012,09,26,09,18,997.80
2012,09,26,09,19,997.80
2012,09,26,09,20,997.87
2012,09,26,09,21,997.94
2012,09,26,09,22,997.90
2012,09,26,09,23,997.94
2012,09,26,09,24,997.94
2012,09,26,09,25,997.94
2012,09,26,09,26,997.94
2012,09,26,09,27,997.94
2012,09,26,09,28,998.00
2012,09,26,09,29,998.10
2012,09,26,09,30,998.10
2012,09,26,09,31,998.21
2012,09,26,09,32,998.17
2012,09,26,09,33,998.21
2012,09,26,09,34,998.17
2012,09,26,09,35,998.21
2012,09,26,09,36,998.14
2012,09,26,09,37,998.10
2012,09,26,09,38,998.10
2012,09,26,09,39,998.14
2012,09,26,09,40,998.04
2012,09,26,09,41,997.97
2012,09,26,09,42,997.94
2012,09,26,09,43,997.94
2012,09,26,09,44,997.90
2012,09,26,09,45,997.90
2012,09,26,09,46,997.97
2012,09,26,09,47,997.94
2012,09,26,09,48,997.97
2012,09,26,09,49,997.97
2012,09,26,09,50,997.90
2012,09,26,09,51,997.94
2012,09,26,09,52,997.87
2012,09,26,09,53,997.94
2012,09,26,09,54,997.90
2012,09,26,09,55,997.90
2012,09,26,09,56,997.83
2012,09,26,09,57,997.83
2012,09,26,09,58,997.90
2012,09,26,09,59,997.90
2012,09,26,10,00,997.83
2012,09,26,10,01,997.83
2012,09,26,10,02,997.83
2012,09,26,10,03,997.80
2012,09,26,10,04,997.80
2012,09,26,10,05,997.73
2012,09,26,10,06,997.66
2012,09,26,10,07,997.66
2012,09,26,10,08,997.63
2012,09,26,10,09,997.56
2012,09,26,10,10,997.50
2012,09,26,10,11,997.46
2012,09,26,10,12,997.46
2012,09,26,10,13,997.36
2012,09,26,10,14,997.29
2012,09,26,10,15,997.33
2012,09,26,10,16,997.26
2012,09,26,10,17,997.22
2012,09,26,10,18,997.19
2012,09,26,10,19,997.22
2012,09,26,10,20,997.22
2012,09,26,10,21,997.12
2012,09,26,10,22,997.09
2012,09,26,10,23,996.99
2012,09,26,10,24,996.99
2012,09,26,10,25,997.02
2012,09,26,10,26,996.99
2012,09,26,10,27,996.95
2012,09,26,10,28,996.99
2012,09,26,10,29,997.02
2012,09,26,10,30,997.16
2012,09,26,10,31,997.22
2012,09,26,10,32,997.33
2012,09,26,10,33,997.33
2012,09,26,10,34,997.43
2012,09,26,10,35,997.43
2012,09,26,10,36,997.56
2012,09,26,10,37,997.60
2012,09,26,10,38,997.66
2012,09,26,10,39,997.66
2012,09,26,10,40,997.73
2012,09,26,10,41,997.70
2012,09,26,10,42,997.73
2012,09,26,10,43,997.77
2012,09,26,10,44,997.73
2012,09,26,10,45,997.73
2012,09,26,10,46,997.70
2012,09,26,10,47,997.73
2012,09,26,10,48,997.73
2012,09,26,10,49,997.77
2012,09,26,10,50,997.77
2012,09,26,10,51,997.80
2012,09,26,10,52,997.77
2012,09,26,10,53,997.73
2012,09,26,10,54,997.77
2012,09,26,10,55,997.73
2012,09,26,10,56,997.80
2012,09,26,10,57,997.77
2012,09,26,10,58,997.80
2012,09,26,10,59,997.77
2012,09,26,11,00,997.80
2012,09,26,11,01,997.77
2012,09,26,11,02,997.80
2012,09,26,11,03,997.83
2012,09,26,11,04,997.90
2012,09,26,11,05,997.94
2012,09,26,11,06,997.94
2012,09,26,11,07,997.97
2012,09,26,11,08,997.97
2012,09,26,11,09,997.97
2012,09,26,11,10,998.07
2012,09,26,11,11,998.07
2012,09,26,11,12,998.07
2012,09,26,11,13,998.07
2012,09,26,11,14,998.07
2012,09,26,11,15,998.10
2012,09,26,11,16,998.14
2012,09,26,11,17,998.14
2012,09,26,11,18,998.10
2012,09,26,11,19,998.10
2012,09,26,11,20,998.10
2012,09,26,11,21,998.10
2012,09,26,11,22,998.10
2012,09,26,11,23,998.07
2012,09,26,11,24,998.10
2012,09,26,11,25,998.14
2012,09,26,11,26,998.10
2012,09,26,11,27,998.24
2012,09,26,11,28,998.21
2012,09,26,11,29,998.21
2012,09,26,11,30,998.17
2012,09,26,11,31,998.14
2012,09,26,11,32,998.14
2012,09,26,11,33,998.10
2012,09,26,11,34,998.14
2012,09,26,11,35,998.14
2012,09,26,11,36,998.21
2012,09,26,11,37,998.17
2012,09,26,11,38,998.17
2012,09,26,11,39,998.21
2012,09,26,11,40,998.21
2012,09,26,11,41,998.17
2012,09,26,11,42,998.14
2012,09,26,11,43,998.17
2012,09,26,11,44,998.17
2012,09,26,11,45,998.14
2012,09,26,11,46,998.14
2012,09,26,11,47,998.14
2012,09,26,11,48,998.10
2012,09,26,11,49,998.14
2012,09,26,11,50,998.21
2012,09,26,11,51,998.21
2012,09,26,11,52,998.24
2012,09,26,11,53,998.27
2012,09,26,11,54,998.31
2012,09,26,11,55,998.34
2012,09,26,11,56,998.38
2012,09,26,11,57,998.38
2012,09,26,11,58,998.34
2012,09,26,11,59,998.34
2012,09,26,12,00,998.31
2012,09,26,12,01,998.27
2012,09,26,12,02,998.31
2012,09,26,12,03,998.31
2012,09,26,12,04,998.31
2012,09,26,12,05,998.27
2012,09,26,12,06,998.31
2012,09,26,12,07,998.31
2012,09,26,12,08,998.34
2012,09,26,12,09,998.31
2012,09,26,12,10,998.34
2012,09,26,12,11,998.34
2012,09,26,12,12,998.34
2012,09,26,12,13,998.38
2012,09,26,12,14,998.34
2012,09,26,12,15,998.38
2012,09,26,12,16,998.38
2012,09,26,12,17,998.41
2012,09,26,12,18,998.34
2012,09,26,12,19,998.34
2012,09,26,12,20,998.34
2012,09,26,12,21,998.38
2012,09,26,12,22,998.38
2012,09,26,12,23,998.31
2012,09,26,12,24,998.24
2012,09,26,12,25,998.24
2012,09,26,12,26,998.21
2012,09,26,12,27,998.17
2012,09,26,12,28,998.17
2012,09,26,12,29,998.17
2012,09,26,12,30,998.21
2012,09,26,12,31,998.17
2012,09,26,12,32,998.14
2012,09,26,12,33,998.14
2012,09,26,12,34,998.10
2012,09,26,12,35,998.14
2012,09,26,12,36,998.14
2012,09,26,12,37,998.14
2012,09,26,12,38,998.14
2012,09,26,12,39,998.14
2012,09,26,12,40,998.07
2012,09,26,12,41,998.07
2012,09,26,12,42,998.04
2012,09,26,12,43,998.04
2012,09,26,12,44,997.97
2012,09,26,12,45,997.94
2012,09,26,12,46,997.90
2012,09,26,12,47,997.94
2012,09,26,12,48,997.97
2012,09,26,12,49,997.97
2012,09,26,12,50,997.94
2012,09,26,12,51,997.97
2012,09,26,12,52,997.97
2012,09,26,12,53,997.97
2012,09,26,12,54,997.97
2012,09,26,12,55,997.94
2012,09,26,12,56,997.90
2012,09,26,12,57,997.94
2012,09,26,12,58,997.94
2012,09,26,12,59,997.90
2012,09,26,13,00,997.94
2012,09,26,13,01,997.87
2012,09,26,13,02,997.87
2012,09,26,13,03,997.83
2012,09,26,13,04,997.87
2012,09,26,13,05,997.90
2012,09,26,13,06,997.90
2012,09,26,13,07,997.94
2012,09,26,13,08,997.97
2012,09,26,13,09,997.97
2012,09,26,13,10,998.00
2012,09,26,13,11,998.00
2012,09,26,13,12,998.00
2012,09,26,13,13,997.97
2012,09,26,13,14,997.97
2012,09,26,13,15,998.04
2012,09,26,13,16,997.97
2012,09,26,13,17,998.00
2012,09,26,13,18,997.97
2012,09,26,13,19,997.94
2012,09,26,13,20,997.94
2012,09,26,13,21,997.83
2012,09,26,13,22,997.83
2012,09,26,13,23,997.77
2012,09,26,13,24,997.80
2012,09,26,13,25,997.77
2012,09,26,13,26,997.80
2012,09,26,13,27,997.77
2012,09,26,13,28,997.77
2012,09,26,13,29,997.80
2012,09,26,13,30,997.83
2012,09,26,13,31,997.83
2012,09,26,13,32,997.83
2012,09,26,13,33,997.83
2012,09,26,13,34,997.83
2012,09,26,13,35,997.83
2012,09,26,13,36,997.80
2012,09,26,13,37,997.77
2012,09,26,13,38,997.80
2012,09,26,13,39,997.87
2012,09,26,13,40,997.80
2012,09,26,13,41,997.80
2012,09,26,13,42,997.80
2012,09,26,13,43,997.83
2012,09,26,13,44,997.80
2012,09,26,13,45,997.77
2012,09,26,13,46,997.80
2012,09,26,13,47,997.80
2012,09,26,13,48,997.83
2012,09,26,13,49,997.77
2012,09,26,13,50,997.77
2012,09,26,13,51,997.80
2012,09,26,13,52,997.70
2012,09,26,13,53,997.83
2012,09,26,13,54,997.73
2012,09,26,13,55,997.70
2012,09,26,13,56,997.73
2012,09,26,13,57,997.70
2012,09,26,13,58,997.66
2012,09,26,13,59,997.63
2012,09,26,14,00,997.63
2012,09,26,14,01,997.63
2012,09,26,14,02,997.66
2012,09,26,14,03,997.63
2012,09,26,14,04,997.60
2012,09,26,14,05,997.60
2012,09,26,14,06,997.56
2012,09,26,14,07,997.56
2012,09,26,14,08,997.60
2012,09,26,14,09,997.53
2012,09,26,14,10,997.43
2012,09,26,14,11,997.43
2012,09,26,14,12,997.39
2012,09,26,14,13,997.46
2012,09,26,14,14,997.39
2012,09,26,14,15,997.39
2012,09,26,14,16,997.39
2012,09,26,14,17,997.36
2012,09,26,14,18,997.39
2012,09,26,14,19,997.36
2012,09,26,14,20,997.43
2012,09,26,14,21,997.43
2012,09,26,14,22,997.36
2012,09,26,14,23,997.36
2012,09,26,14,24,997.39
2012,09,26,14,25,997.39
2012,09,26,14,26,997.39
2012,09,26,14,27,997.36
2012,09,26,14,28,997.33
2012,09,26,14,29,997.33
2012,09,26,14,30,997.29
2012,09,26,14,31,997.29
2012,09,26,14,32,997.26
2012,09,26,14,33,997.22
2012,09,26,14,34,997.22
2012,09,26,14,35,997.19
2012,09,26,14,36,997.19
2012,09,26,14,37,997.19
2012,09,26,14,38,997.16
2012,09,26,14,39,997.19
2012,09,26,14,40,997.16
2012,09,26,14,41,997.22
2012,09,26,14,42,997.19
2012,09,26,14,43,997.12
2012,09,26,14,44,997.12
2012,09,26,14,45,997.12
2012,09,26,14,46,997.12
2012,09,26,14,47,997.09
2012,09,26,14,48,997.09
2012,09,26,14,49,997.09
2012,09,26,14,50,997.09
2012,09,26,14,51,996.95
2012,09,26,14,52,996.99
2012,09,26,14,53,996.99
2012,09,26,14,54,996.99
2012,09,26,14,55,996.99
2012,09,26,14,56,996.99
2012,09,26,14,57,996.99
2012,09,26,14,58,996.99
2012,09,26,14,59,997.02
2012,09,26,15,00,996.99
2012,09,26,15,01,996.99
2012,09,26,15,02,996.95
2012,09,26,15,03,996.99
2012,09,26,15,04,996.95
2012,09,26,15,05,996.95
2012,09,26,15,06,996.92
2012,09,26,15,07,996.95
2012,09,26,15,08,996.95
2012,09,26,15,09,996.95
2012,09,26,15,10,996.92
2012,09,26,15,11,996.99
2012,09,26,15,12,996.99
2012,09,26,15,13,996.99
2012,09,26,15,14,996.95
2012,09,26,15,15,996.95
2012,09,26,15,16,996.89
2012,09,26,15,17,996.85
2012,09,26,15,18,996.78
2012,09,26,15,19,996.75
2012,09,26,15,20,996.68
2012,09,26,15,21,996.58
2012,09,26,15,22,996.61
2012,09,26,15,23,996.58
2012,09,26,15,24,996.58
2012,09,26,15,25,996.55
2012,09,26,15,26,996.51
2012,09,26,15,27,996.45
2012,09,26,15,28,996.48
2012,09,26,15,29,996.38
2012,09,26,15,30,996.34
2012,09,26,15,31,996.34
2012,09,26,15,32,996.31
2012,09,26,15,33,996.28
2012,09,26,15,34,996.21
2012,09,26,15,35,996.21
2012,09,26,15,36,996.21
2012,09,26,15,37,996.24
2012,09,26,15,38,996.14
2012,09,26,15,39,996.14
2012,09,26,15,40,996.07
2012,09,26,15,41,996.07
2012,09,26,15,42,996.11
2012,09,26,15,43,996.07
2012,09,26,15,44,996.07
2012,09,26,15,45,996.07
2012,09,26,15,46,996.07
2012,09,26,15,47,996.01
2012,09,26,15,48,996.04
2012,09,26,15,49,995.97
2012,09,26,15,50,996.01
2012,09,26,15,51,996.01
2012,09,26,15,52,995.94
2012,09,26,15,53,995.94
2012,09,26,15,54,995.87
2012,09,26,15,55,995.90
2012,09,26,15,56,995.94
2012,09,26,15,57,995.90
2012,09,26,15,58,995.90
2012,09,26,15,59,995.90
2012,09,26,16,00,995.80
2012,09,26,16,01,995.80
2012,09,26,16,02,995.77
2012,09,26,16,03,995.77
2012,09,26,16,04,995.77
2012,09,26,16,05,995.73
2012,09,26,16,06,995.67
2012,09,26,16,07,995.63
2012,09,26,16,08,995.67
2012,09,26,16,09,995.70
2012,09,26,16,10,995.67
2012,09,26,16,11,995.63
2012,09,26,16,12,995.67
2012,09,26,16,13,995.70
2012,09,26,16,14,995.73
2012,09,26,16,15,995.67
2012,09,26,16,16,995.70
2012,09,26,16,17,995.70
2012,09,26,16,18,995.67
2012,09,26,16,19,995.67
2012,09,26,16,20,995.63
2012,09,26,16,21,995.67
2012,09,26,16,22,995.70
2012,09,26,16,23,995.56
2012,09,26,16,24,995.63
2012,09,26,16,25,995.56
2012,09,26,16,26,995.56
2012,09,26,16,27,995.63
2012,09,26,16,28,995.50
2012,09,26,16,29,995.50
2012,09,26,16,30,995.46
2012,09,26,16,31,995.46
2012,09,26,16,32,995.46
2012,09,26,16,33,995.43
2012,09,26,16,34,995.36
2012,09,26,16,35,995.40
2012,09,26,16,36,995.36